RH
30 29 28 28 28 28 27 27 27 26 26 25 24 23 21 19 19 19 17 16 15 12 10 14 21 23 23 23 23 23 22 20 18 17 13 14 12 12 11 11 11 15 18 22 27
29 28 27 26 25 25 25 25 26 27 28 27 25 25 24 21 20 19 20 19 16 14 13 12 18 24 25 25 25 24 23 20 19 16 15 15 14 13 13 12 11 12 17 21 23
29 27 26 26 25 25 25 26 26 26 26 27 27 27 26 24 22 21 24 23 21 22 20 16 15 17 23 24 25 24 22 21 19 18 18 17 16 15 14 13 11 10 16 20 22
29 29 30 29 28 27 27 26 26 26 26 27 28 29 28 27 24 24 25 25 25 25 22 24 18 18 20 22 24 25 24 22 20 20 19 19 18 17 16 15 12 10 14 18 20
35 33 32 31 30 28 29 28 27 27 28 29 28 29 28 28 26 25 22 25 26 27 26 25 27 29 22 20 22 26 24 23 22 21 20 20 20 19 20 19 17 13 13 16 19
36 32 29 26 23 23 24 24 24 27 30 31 33 34 36 36 28 28 26 21 24 25 25 26 24 25 25 23 23 24 27 26 23 23 21 22 19 21 16 17 19 18 14 13 17
24 21 18 16 14 13 12 12 12 12 13 18 24 30 40 45 34 33 33 24 20 17 17 17 20 22 22 21 22 23 26 26 23 22 22 21 18 19 15 17 17 16 17 14 14
19 17 14 12 10 10 8 7 6 6 6 6 9 15 24 28 41 44 38 32 22 20 13 16 17 19 22 20 20 19 20 21 17 17 16 17 18 17 16 14 15 16 16 16 14
17 15 12 10 8 6 6 5 4 5 9 9 10 13 12 12 27 46 55 44 39 26 18 19 23 22 21 22 19 21 18 22 19 18 18 18 18 21 16 16 15 15 16 16 16
16 12 8 7 7 6 5 4 6 8 12 13 18 19 12 14 16 26 47 48 47 39 26 25 30 27 25 23 18 15 19 22 22 19 18 17 16 18 16 15 16 16 16 17 18
12 8 6 7 7 8 6 5 8 11 12 12 9 13 7 3 6 13 26 48 48 51 37 35 34 34 20 17 16 19 24 26 23 18 17 16 16 16 14 13 13 14 15 16 18
10 8 8 8 10 9 10 16 24 25 27 9 6 12 8 11 16 8 11 32 49 60 51 47 36 29 25 27 26 24 23 23 23 20 25 24 20 17 14 13 13 13 11 14 16
10 10 10 10 10 12 14 15 23 24 30 14 15 20 29 31 26 14 11 18 36 50 61 49 48 44 36 31 29 26 27 29 31 31 29 29 20 16 15 14 12 12 14 14 14
10 10 12 11 14 13 15 14 18 26 31 15 19 31 35 40 37 27 18 15 31 42 46 55 50 41 37 37 36 37 33 36 42 41 34 33 28 18 19 16 18 20 19 18 17
10 10 11 14 17 16 15 13 19 29 20 11 20 25 24 48 48 45 37 25 27 40 47 44 42 49 52 47 41 45 44 42 42 43 45 38 42 27 19 21 25 29 26 22 22
11 11 13 15 17 18 15 14 24 29 25 15 18 24 17 29 58 53 53 35 26 45 48 44 46 45 42 41 44 47 42 41 45 47 52 36 37 27 23 27 31 38 33 30 30
12 15 16 16 16 17 17 20 31 29 17 22 29 27 18 33 56 78 63 47 41 46 52 53 45 40 43 45 48 49 51 52 57 57 43 40 47 29 29 42 47 46 42 38 37
17 18 19 19 19 18 23 31 27 22 25 30 34 32 26 41 52 70 92 51 51 41 42 44 48 43 43 43 48 53 53 47 48 55 52 49 44 32 46 52 53 55 50 45 44
19 21 22 24 24 27 33 42 30 48 51 51 47 42 46 58 61 78 91 79 62 50 52 50 52 52 50 50 52 60 60 56 62 57 57 44 36 39 48 58 59 59 52 48 50
21 24 27 30 33 40 47 46 44 50 55 54 57 55 59 49 49 73 92 89 70 67 64 65 72 69 68 62 62 62 64 75 72 69 67 48 45 44 61 64 64 62 58 52 55
25 26 35 37 42 52 60 63 60 58 62 60 55 55 45 42 51 72 89 94 91 78 71 69 64 78 77 72 69 71 72 73 75 74 71 65 47 68 73 72 66 65 62 56 60
27 33 39 43 52 65 72 75 70 64 65 61 55 48 42 38 61 84 92 93 98 99 80 70 65 70 73 68 67 69 69 67 74 76 80 78 58 62 65 68 68 70 67 65 73
33 39 48 55 62 66 59 57 60 60 62 61 56 49 44 56 70 71 91 88 98 96 82 69 69 62 77 73 70 72 83 84 74 75 72 80 60 64 60 62 65 74 74 72 80
44 51 55 64 62 61 65 65 68 65 69 72 57 50 45 46 60 73 86 88 98 97 89 75 72 62 51 54 55 59 58 58 67 68 57 58 51 47 49 53 64 76 77 78 86
53 60 62 58 56 61 72 80 83 83 79 81 66 55 47 55 66 78 90 97 98 96 89 80 79 76 69 56 51 49 48 47 49 45 53 37 48 47 52 60 69 80 85 84 91
61 63 60 54 59 70 74 82 90 96 96 91 83 65 55 70 71 94 93 96 95 94 87 81 82 72 64 53 46 43 35 38 46 47 45 45 47 60 62 70 78 83 86 89 96
67 67 57 52 62 68 71 84 96 98 90 82 72 67 58 64 80 88 88 94 91 90 82 80 76 74 65 51 39 34 40 38 40 46 53 48 42 54 71 82 85 89 92 94 97